User: anonymous   Login
Location: Unspecified
(0.0000°N, 0.0000°E)
Time: 16:22:01
(UTC+00:00)
Language:

Meteor 1-29 - Orbit

View from above orbital plane
View from above orbital plane
View from above satellite
View from above satellite

Ground track
Ground track

The orbit data is extracted from the following two-line orbital elements,

1 11251U 79005A   18112.42719705  .00001379  00000-0  40139-4 0  9990
2 11251  97.7109 349.8618 0017577  56.9474 303.3455 15.37212497687102
Epoch (UTC): 22 April 2018 10:15:09
Eccentricity: 0.0017577
inclination: 97.7109°
perigee height: 442 km
apogee height: 466 km
right ascension of ascending node: 349.8618°
argument of perigee: 56.9474°
revolutions per day: 15.37212497
mean anomaly at epoch: 303.3455°
orbit number at epoch: 68710

The dashed part of the orbit path shows where the satellite is in the earth's shadow,  

DLR